EW4436 Weather Reports


time (UTC)temp
C
wind
direction
speed
KPH
gust
KPH
rain 1hr
cm
rain 24hr
cm
rain mn
cm
humidity
%
barometer
mb
20260505094103 16 350 0.0 8.0 0.00 0.00 0.00 81 1008.7
20260505093603 16 349 3.2 8.0 0.00 0.00 0.00 81 1008.8
20260505092604 16 350 3.2 12.9 0.00 0.00 0.00 81 1008.7
20260505090604 16 348 3.2 8.0 0.00 0.00 0.00 80 1008.6
20260505090104 16 349 3.2 11.3 0.00 0.00 0.00 80 1008.4
20260505085604 16 349 1.6 11.3 0.00 0.00 0.00 80 1008.4
20260505085104 16 346 4.8 11.3 0.00 0.00 0.00 79 1008.5
20260505084603 16 349 1.6 8.0 0.00 0.00 0.00 79 1008.4
20260505084104 16 348 3.2 8.0 0.00 0.00 0.00 79 1008.4
20260505083103 17 348 4.8 9.7 0.00 0.00 0.00 78 1008.7
20260505082604 16 346 4.8 9.7 0.00 0.00 0.00 79 1008.6
20260505082104 16 348 4.8 9.7 0.00 0.00 0.00 79 1008.6
20260505081604 16 347 3.2 8.0 0.00 0.00 0.00 79 1008.7
20260505081104 17 350 1.6 9.7 0.00 0.00 0.00 79 1008.7
20260505075604 17 347 4.8 9.7 0.00 0.00 0.00 78 1008.4
20260505074604 17 347 4.8 9.7 0.00 0.00 0.00 77 1008.5
20260505074103 17 349 4.8 12.9 0.00 0.00 0.00 77 1008.2
20260505073604 17 346 4.8 14.5 0.00 0.00 0.00 77 1008.4
20260505073104 17 346 3.2 9.7 0.00 0.00 0.00 78 1008.3
20260505072604 17 345 6.4 11.3 0.00 0.00 0.00 78 1008.3
20260505072103 17 346 4.8 11.3 0.00 0.00 0.00 78 1008.2
20260505071104 17 345 8.0 9.7 0.00 0.00 0.00 77 1008.1
20260505070603 17 350 3.2 8.0 0.00 0.00 0.00 77 1008.2
20260505070104 17 349 3.2 9.7 0.00 0.00 0.00 77 1008.1
20260505065604 17 345 4.8 12.9 0.00 0.00 0.00 77 1008.1
20260505065103 17 344 6.4 12.9 0.00 0.00 0.00 77 1008.1
20260505064603 17 342 8.0 12.9 0.00 0.00 0.00 77 1008.0
20260505064103 17 350 4.8 11.3 0.00 0.00 0.00 77 1008.2
20260505063603 17 348 3.2 8.0 0.00 0.00 0.00 78 1008.1
20260505063104 17 344 6.4 11.3 0.00 0.00 0.00 77 1008.3
20260505062604 17 348 3.2 12.9 0.00 0.00 0.00 77 1008.2
20260505062104 17 341 6.4 12.9 0.00 0.00 0.00 77 1008.1
20260505061604 17 345 4.8 12.9 0.00 0.00 0.00 77 1008.2
20260505061104 17 349 6.4 11.3 0.00 0.00 0.00 77 1008.1
20260505060604 17 344 6.4 12.9 0.00 0.00 0.00 77 1008.2
20260505060104 17 344 6.4 14.5 0.00 0.00 0.00 77 1008.2
20260505055603 17 336 8.0 14.5 0.00 0.00 0.00 76 1008.1
20260505055104 17 349 6.4 12.9 0.00 0.00 0.00 76 1008.2
20260505054604 18 345 8.0 11.3 0.00 0.00 0.00 76 1008.2
20260505054104 17 349 3.2 8.0 0.00 0.00 0.00 77 1008.3
20260505053604 18 349 3.2 9.7 0.00 0.00 0.00 77 1008.3
20260505053104 18 345 4.8 11.3 0.00 0.00 0.00 76 1008.3
20260505052604 18 341 8.0 14.5 0.00 0.00 0.00 76 1008.2
20260505051603 18 339 6.4 19.3 0.00 0.00 0.00 76 1008.2
20260505051104 18 347 8.0 19.3 0.00 0.00 0.00 76 1008.2
20260505050604 18 346 9.7 19.3 0.00 0.00 0.00 75 1008.3
20260505041604 18 338 9.7 19.3 0.00 0.00 0.00 75 1008.2
20260505041104 18 341 4.8 19.3 0.00 0.00 0.00 75 1008.1
20260505040604 18 343 6.4 14.5 0.00 0.00 0.00 75 1008.2
20260505040104 18 345 8.0 14.5 0.00 0.00 0.00 75 1008.1
20260505035603 18 342 9.7 16.1 0.00 0.00 0.00 75 1008.1
20260505035104 18 352 9.7 16.1 0.00 0.00 0.00 75 1008.2
20260505034604 19 344 8.0 14.5 0.00 0.00 0.00 75 1008.0
20260505034104 18 341 8.0 14.5 0.00 0.00 0.00 75 1008.1
20260505033104 18 349 8.0 14.5 0.00 0.00 0.00 74 1008.0
20260505032603 18 348 4.8 14.5 0.00 0.00 0.00 74 1008.0
20260505032104 18 343 6.4 12.9 0.00 0.00 0.00 73 1008.2
20260505031604 18 339 8.0 12.9 0.00 0.00 0.00 72 1008.1
20260505031104 18 353 4.8 12.9 0.00 0.00 0.00 72 1008.0
20260505030603 18 353 3.2 11.3 0.00 0.00 0.00 71 1008.1
20260505030105 18 343 3.2 11.3 0.00 0.00 0.00 70 1007.8
20260505025603 18 352 4.8 8.0 0.00 0.00 0.00 69 1007.9
20260505025104 18 353 3.2 4.8 0.00 0.00 0.00 67 1007.9
20260505023604 18 352 3.2 4.8 0.00 0.00 0.00 62 1007.8
20260505023104 18 353 1.6 3.2 0.00 0.00 0.00 63 1007.6
20260505022603 18 353 1.6 3.2 0.00 0.00 0.00 62 1007.7
20260505021604 18 353 1.6 4.8 0.00 0.00 0.00 64 1007.5
20260505021103 18 353 1.6 3.2 0.00 0.00 0.00 63 1007.5
20260505020604 19 353 1.6 3.2 0.00 0.00 0.00 62 1007.4
20260505020104 19 353 0.0 4.8 0.00 0.00 0.00 61 1007.3
20260505015603 19 353 0.0 3.2 0.00 0.00 0.00 61 1007.4
20260505015103 19 353 1.6 4.8 0.00 0.00 0.00 60 1007.1
20260505014604 19 354 1.6 4.8 0.00 0.00 0.00 62 1007.0
20260505014104 19 353 1.6 4.8 0.00 0.00 0.00 62 1007.1
20260505013604 19 352 1.6 3.2 0.00 0.00 0.00 61 1007.3
20260505013103 19 352 1.6 3.2 0.00 0.00 0.00 62 1007.3
20260505012104 19 352 1.6 1.6 0.00 0.00 0.00 61 1007.4
20260505011604 19 352 1.6 1.6 0.00 0.00 0.00 60 1007.3
20260505011104 20 352 0.0 3.2 0.00 0.00 0.00 61 1007.2
20260505010604 20 352 1.6 3.2 0.00 0.00 0.00 60 1007.3
20260505010104 20 351 1.6 1.6 0.00 0.00 0.00 60 1007.3
20260505005604 20 351 0.0 1.6 0.00 0.00 0.00 55 1007.0
20260505005104 20 351 0.0 3.2 0.00 0.00 0.00 55 1007.1
20260505004603 20 351 3.2 3.2 0.00 0.00 0.00 54 1007.0
20260505004103 20 351 0.0 3.2 0.00 0.00 0.00 54 1006.9
20260505003604 21 351 1.6 1.6 0.00 0.00 0.00 53 1006.9
20260505002604 21 351 0.0 4.8 0.00 0.00 0.00 52 1006.7
20260505001103 21 351 1.6 3.2 0.00 0.00 0.00 52 1006.6
20260505000603 22 351 0.0 3.2 0.00 0.00 0.00 51 1006.6
20260505000104 22 351 1.6 4.8 0.00 0.00 0.00 50 1006.7
20260504235603 22 350 3.2 4.8 0.00 0.00 0.00 50 1006.7
20260504235103 22 349 3.2 4.8 0.00 0.00 0.00 49 1006.5
20260504234603 23 349 3.2 4.8 0.00 0.00 0.00 48 1006.4
20260504234103 23 349 3.2 9.7 0.00 0.00 0.00 49 1006.5
20260504233603 23 350 3.2 8.0 0.00 0.00 0.00 48 1006.3
20260504233103 23 349 8.0 9.7 0.00 0.00 0.00 47 1006.4
20260504232604 23 349 3.2 8.0 0.00 0.00 0.00 47 1006.2
20260504232104 23 344 3.2 8.0 0.00 0.00 0.00 46 1006.5
20260504231604 23 351 3.2 11.3 0.00 0.00 0.00 47 1006.2
20260504231104 23 352 3.2 11.3 0.00 0.00 0.00 45 1006.3
20260504230603 23 350 4.8 9.7 0.00 0.00 0.00 46 1006.2
20260504225603 24 348 3.2 8.0 0.00 0.00 0.00 45 1006.2
20260504224604 24 351 4.8 9.7 0.00 0.00 0.00 44 1006.1
20260504223604 25 349 3.2 14.5 0.00 0.00 0.00 44 1006.2
20260504223103 25 349 4.8 12.9 0.00 0.00 0.00 44 1006.2
20260504222604 25 336 8.0 14.5 0.00 0.00 0.00 42 1006.3
20260504222104 25 348 8.0 12.9 0.00 0.00 0.00 42 1006.3
20260504221104 25 346 8.0 16.1 0.00 0.00 0.00 42 1006.2
20260504220604 25 347 4.8 14.5 0.00 0.00 0.00 42 1006.3
20260504220104 25 350 8.0 14.5 0.00 0.00 0.00 41 1006.4
20260504215604 25 350 4.8 12.9 0.00 0.00 0.00 42 1006.4
20260504215104 25 348 6.4 14.5 0.00 0.00 0.00 42 1006.4
20260504214603 26 351 3.2 14.5 0.00 0.00 0.00 41 1006.4
20260504214103 26 350 4.8 14.5 0.00 0.00 0.00 40 1006.3
20260504213103 26 347 4.8 11.3 0.00 0.00 0.00 42 1006.5
20260504212604 25 346 8.0 14.5 0.00 0.00 0.00 41 1006.3
20260504212103 25 350 6.4 11.3 0.00 0.00 0.00 41 1006.5
20260504211603 25 350 4.8 11.3 0.00 0.00 0.00 40 1006.4
20260504211104 25 350 6.4 14.5 0.00 0.00 0.00 40 1006.4
20260504210604 25 347 8.0 14.5 0.00 0.00 0.00 40 1006.7
20260504210104 25 351 4.8 12.9 0.00 0.00 0.00 39 1006.7
20260504205104 25 351 4.8 9.7 0.00 0.00 0.00 38 1006.6
20260504204604 25 348 4.8 9.7 0.00 0.00 0.00 37 1006.5
20260504204104 25 351 3.2 12.9 0.00 0.00 0.00 38 1006.7
20260504202603 25 347 8.0 14.5 0.00 0.00 0.00 37 1006.9
20260504202103 25 347 9.7 16.1 0.00 0.00 0.00 35 1007.0
20260504201604 24 349 8.0 16.1 0.00 0.00 0.00 36 1006.9
20260504201103 25 347 8.0 16.1 0.00 0.00 0.00 36 1007.0
20260504200603 25 351 4.8 14.5 0.00 0.00 0.00 38 1007.0
20260504200104 25 348 8.0 19.3 0.00 0.00 0.00 38 1007.0
20260504195104 25 352 3.2 9.7 0.00 0.00 0.00 40 1007.1
20260504194103 24 352 3.2 11.3 0.00 0.00 0.00 38 1007.1
20260504193603 25 351 4.8 12.9 0.00 0.00 0.00 40 1007.3
20260504193103 24 350 6.4 11.3 0.00 0.00 0.00 40 1007.3
20260504192603 24 349 6.4 9.7 0.00 0.00 0.00 39 1007.4
20260504192104 24 346 8.0 12.9 0.00 0.00 0.00 39 1007.5
20260504191604 24 350 8.0 9.7 0.00 0.00 0.00 40 1007.7
20260504191104 24 348 8.0 11.3 0.00 0.00 0.00 39 1007.7
20260504190604 24 348 1.6 11.3 0.00 0.00 0.00 39 1007.6
20260504190104 23 350 3.2 9.7 0.00 0.00 0.00 38 1007.7
20260504185604 23 349 3.2 11.3 0.00 0.00 0.00 39 1007.8
20260504185103 23 351 8.0 12.9 0.00 0.00 0.00 38 1007.8
20260504184603 23 351 4.8 12.9 0.00 0.00 0.00 39 1008.0
20260504184103 24 348 4.8 12.9 0.00 0.00 0.00 38 1007.9
20260504183603 23 349 6.4 19.3 0.00 0.00 0.00 37 1008.2
20260504183104 23 344 11.3 16.1 0.00 0.00 0.00 38 1008.1
20260504182104 24 351 4.8 16.1 0.00 0.00 0.00 37 1008.3
20260504181604 24 347 8.0 16.1 0.00 0.00 0.00 37 1008.5
20260504181103 24 347 9.7 12.9 0.00 0.00 0.00 36 1008.4
20260504180603 23 352 8.0 16.1 0.00 0.00 0.00 37 1008.4
20260504180104 23 346 9.7 16.1 0.00 0.00 0.00 36 1008.5
20260504175604 23 342 9.7 24.1 0.00 0.00 0.00 36 1008.4
20260504175104 24 353 9.7 12.9 0.00 0.00 0.00 36 1008.7
20260504174604 24 353 6.4 12.9 0.00 0.00 0.00 36 1008.7
20260504174103 23 354 4.8 11.3 0.00 0.00 0.00 37 1008.5
20260504173603 23 353 6.4 16.1 0.00 0.00 0.00 37 1008.8
20260504173104 23 351 6.4 16.1 0.00 0.00 0.00 39 1008.6
20260504172604 23 352 9.7 19.3 0.00 0.00 0.00 36 1008.8
20260504171604 23 354 6.4 14.5 0.00 0.00 0.00 39 1008.8
20260504171103 23 353 3.2 12.9 0.00 0.00 0.00 38 1009.0
20260504160105 21 354 4.8 9.7 0.00 0.00 0.00 46 1009.8
20260504151103 20 352 6.4 12.9 0.00 0.00 0.00 53 1010.0
20260504150604 20 354 4.8 9.7 0.00 0.00 0.00 54 1009.9
20260504150104 20 354 4.8 9.7 0.00 0.00 0.00 54 1009.8
20260504141103 18 353 6.4 12.9 0.00 0.00 0.00 58 1010.2
20260504140604 18 354 6.4 11.3 0.00 0.00 0.00 57 1010.3
20260504140104 18 351 4.8 11.3 0.00 0.00 0.00 59 1010.0
20260504130603 16 354 4.8 12.9 0.00 0.00 0.00 67 1010.6
20260504130104 16 353 6.4 12.9 0.00 0.00 0.00 68 1010.6
20260504120104 14 356 3.2 4.8 0.00 0.00 0.00 76 1010.7
20260504110604 11 358 1.6 3.2 0.00 0.00 0.00 85 1011.1
20260504110104 11 358 1.6 3.2 0.00 0.00 0.00 85 1011.0
20260504100604 10 357 0.0 1.6 0.00 0.00 0.00 88 1011.1
20260504100104 10 357 0.0 3.2 0.00 0.00 0.00 89 1011.2